ARIANE 42P DEB, 44510

Orbit data source: Space-Track

ARIANE 42P DEB, 44510 is space debris in LEO originally from a launch on Mon, 10 Aug 1992 UTC launched from the French Guiana (FRGUI). Debris objects in space refer to the collection of defunct objects orbiting the Earth. Examples of debris include non-operational satellites, rocket bodies, and fragments generated from explosions, collisions, or faulty payload assembly.

Loading next visibility...
Identifier
44510, 1992-052H
Orbit
LEO
Country
Flag of FRFR
Related business
Manufacturer
ArianeGroup
Mission
Spacecraft
Bus & Motor
Unknown
Mass
Unknown
Launch date (UTC)
1992-08-10 (33 years ago)
Launch vehicle
Unknown
Launch site
French Guiana (FRGUI)
Object type
Payload
Rocket body
Debris
Shape & HBR
Unknown shape, 0.1 m
Radar Cross Section
Small (<0.1 m²)

Expand to show TLE details & history
Last TLE update: 13 hours ago

TLE from 13 hours ago
0 ARIANE 42P DEB
1 44510U 92052H   26036.87439565  .00001384  00000-0  60480-2 0  9992
2 44510  66.0586 211.3449 0099617  12.6748 347.6739 12.82002271302763
Epoch: 2026-02-05T20:59Z
TLE epoch observation values (Epoch: 2026-02-05T20:59:07.784Z)
Latitude
0.00005°
Longitude
120.54213°
Altitude
1,260.321 km
Speed
7.261 km/s
True Right ascension
14h 05m 22s
True Declination
0° 00' 00"
Sunlit
Object was in daylight at epoch
Visualization orbit readout
Latitude
Unknown
Longitude
Unknown
Altitude
Unknown
Speed
Unknown
Apparent Right ascension
Unknown
Apparent Declination
Unknown
Sunlit
N/A
Visualization observer readout
Local Sidereal Time
12:05:29
Azimuth
Unknown
Elevation
Unknown
Doppler factor
Unknown
Orbital elements
Apogee altitude
1,408.796 km
Perigee altitude
1,255.184 km
Semi-major axis
7,710.127 km
Eccentricity
0.00996
Inclination
66.0586°
RAAN
211.3449°
Arg. of periapsis
12.6748°
True anomaly
347.42721°
Mean anomaly
347.6739°
Eccentric anomaly
347.55086°
Mean motion
3.20591 °/min
Orbital period
112.29 mins
BSTAR
0.006048
Loading maneuver chart data...
Computing Atmospheric mass density...
Loading historical data...
Loading historical data...
Loading historical data...
Loading historical data...
Loading historical data...
Loading historical data...
Loading historical data...

Documentation

Showing up to 5 results
|